Погода в Хотуничах

Украина / Черниговская область     51°53′01″N   31°46′18″E
темп.,
°C
ветер,
м/с
пор.,
м/с
влажн.,
%
обл.,
%
осадки,
мм/ч
давл.,
гПа
погр.,
м
27 января, ср
ср2723:000юз10167995 0.0 1003994
02:00−1юз7148394 0.0 1004848
05:00−1юз61184100 0.0 1006851
08:00−2юз41087100 0.0 1007534
11:000зюз4679100 0.0 1008641
14:000зюз3478100 0.0 1007619
17:00−1зсз2287100 0.0 100731
20:00−1ссз3587100 0.0 1007262
28 января, чт
чт2823:00−1ссв3687100 0.0 1006419
02:00−1ссв3685100 0.0 1004467
05:00−2ссв5895100 0.7 1003436
08:00−1с51095100 1.7 1002463
11:00−1с5896100 1.4 1001442
14:00−1с5897100 3.9 1000415
17:00−1с4798100 2.9 999347
20:00−1сз3598100 4.3 999210
29 января, пт
пт2923:00−1з019798 0.2 99941
02:00−3зюз229893 0.3 99924
05:00−3ююз229899 0.6 99843
08:00−3юз2397100 1.3 99661
11:00−2зюз4694100 1.1 995481
14:00−3зюз579399 1.2 994618
17:00−4зюз498893 0.1 994364
20:00−6зюз4109178 0.1 995235
30 января, сб
сб3023:00−5юз5109394 0.1 995456
02:00−5зюз6119493 0.1 996480
05:00−4зюз5991100 0.2 996633
08:00−5зюз3894100 0.3 998299
11:00−4юз349185 0.0 998414
14:00−3ю459192 0.1 997511
17:00−5ююв1294100 0.0 99621
20:00−4с1297100 0.3 99570
31 января, вс
вс3123:00−5ссз2597100 0.5 995163
02:00−5сз3697100 0.8 996217
05:00−5з3796100 0.5 997266
08:00−8з489583 0.6 999158
11:00−4з588618 0.0 1002550
14:00−3зюз698314 0.0 1003837
17:00−6юз488934 0.0 1004127
20:00−8ююз499217 0.0 1006149